Location: Capvern
(43.1036°N, 0.3160°E)
Time: 23:44:18
(UTC+00:00)

SME Rocket - Pass Details

Date: 16 October 2021
Orbit: 550 x 2651 km, 99.9° (Epoch: 04 December)

Event Time Altitude Azimuth Distance (km) Brightness Sun altitude
Rises 17:37:28 0° 9° (N) 2,759 6.2 -5.0°
Reaches altitude 10° 17:39:26 10° 4° (N) 1,914 5.5 -5.4°
Maximum altitude 17:43:16 50° 288° (WNW) 855 4.3 -6.1°
Drops below altitude 10° 17:48:14 10° 214° (SW) 2,479 6.8 -7.0°
Sets 17:51:05 0° 209° (SSW) 3,682 7.6 -7.5°
